Location: Oso Ridge
(35.0450°N, 108.0864°W)
Time: 22:29:15
(UTC-07:00)

Amateur Radio Satellites - All Passes

Search period start: 25 February 2017 21:59
Search period end: 26 February 2017 21:59
Location: Oso Ridge, 35.0450°N, 108.0864°W

Satellite Date Start Highest point End Downlink Frequencies (MHz)
Time Altitude Azimuth
AIST 2D 25 Feb 22:42:56 22:45:08 15° 94° (E) 22:47:18 435.315
YUBILEINY 25 Feb 22:47:11 22:55:08 41° 273° (W) 23:03:04 435.215
RS-15 25 Feb 22:48:43 22:54:45 14° 9° (N) 23:00:45 29.354- 29.394
JUGNU 25 Feb 22:50:26 22:54:14 18° 181° (S) 22:58:02 437.505
EO-79 25 Feb 22:51:25 22:53:26 13° 93° (E) 22:55:26 145.935-145.965
SO-50 25 Feb 22:55:26 22:59:22 26° 307° (NW) 23:03:16 436.795
NO-84 25 Feb 23:02:53 23:05:36 17° 34° (NE) 23:08:24 435.350 FM
NANOSAT C BR1 25 Feb 23:07:09 23:10:10 19° 95° (E) 23:13:11 145.865
POLYITAN 1 25 Feb 23:08:00 23:11:18 21° 95° (E) 23:14:34 437.675
ESTCUBE 1 25 Feb 23:08:34 23:13:03 70° 258° (WSW) 23:17:34 437.505/2401.250
QB50P2 25 Feb 23:10:48 23:14:20 25° 96° (E) 23:17:51 145.880/145.840
LO-87 25 Feb 23:14:00 23:16:42 21° 264° (W) 23:19:26 145.935 - 145.965
DX 1 25 Feb 23:22:17 23:25:31 21° 69° (ENE) 23:28:46 434.975-435.025
FO-29 25 Feb 23:30:57 23:38:21 59° 289° (WNW) 23:45:00 435.910
VELOX 1 25 Feb 23:31:27 23:35:47 65° 76° (ENE) 23:40:08 145.980
UKube-1 25 Feb 23:33:19 23:36:25 20° 68° (ENE) 23:39:31 .
TIGRISAT 25 Feb 23:34:51 23:37:48 17° 293° (WNW) 23:40:44 435.000
UNISAT 6 25 Feb 23:34:55 23:37:39 16° 294° (WNW) 23:40:23 437.425
SPROUT 25 Feb 23:35:08 23:39:17 55° 75° (ENE) 23:43:28 437.525
BUGSAT 1 25 Feb 23:35:24 23:36:37 11° 92° (E) 23:37:51 437.445
O/OREOS (USA 219) 25 Feb 23:38:40 23:41:50 19° 299° (WNW) 23:45:02 437.305
50 SAT 25 Feb 23:39:12 23:42:35 50° 76° (ENE) 23:45:59 437.505
SRMSAT 25 Feb 23:51:03 23:54:37 16° 172° (S) 23:58:11 437.500
DUCHIFAT 1 26 Feb 00:13:34 00:17:50 73° 284° (WNW) 00:22:04 145.980
AIST 2D 26 Feb 00:15:26 00:18:19 23° 288° (WNW) 00:21:10 435.315
EO-79 26 Feb 00:25:18 00:29:22 43° 286° (WNW) 00:33:24 145.935-145.965
PCSat 26 Feb 00:26:02 00:30:05 21° 52° (NE) 00:34:06 145.827
NO-84 26 Feb 00:39:27 00:43:40 76° 230° (SW) 00:48:05 435.350 FM
JUGNU 26 Feb 00:39:44 00:42:29 13° 191° (S) 00:45:15 437.505
NANOSAT C BR1 26 Feb 00:42:09 00:45:53 30° 289° (WNW) 00:49:36 145.865
POLYITAN 1 26 Feb 00:43:24 00:47:01 27° 289° (WNW) 00:50:37 437.675
QB50P2 26 Feb 00:46:35 00:49:59 23° 290° (WNW) 00:53:22 145.880/145.840
DX 1 26 Feb 00:57:48 01:01:30 28° 263° (W) 01:05:14 434.975-435.025
RS-15 26 Feb 01:02:01 01:12:55 34° 43° (NE) 01:23:24 29.354- 29.394
BUGSAT 1 26 Feb 01:08:05 01:12:12 50° 286° (WNW) 01:16:19 437.445
UKube-1 26 Feb 01:08:28 01:12:14 29° 262° (W) 01:16:00 .
Oscar 19 26 Feb 01:20:33 01:25:30 49° 100° (E) 01:30:27 437.125/150
ITUPSAT 1 26 Feb 01:26:56 01:30:46 24° 68° (ENE) 01:34:37 437.325
BEESAT 26 Feb 01:32:48 01:36:51 28° 70° (ENE) 01:40:55 436.000
SRMSAT 26 Feb 01:39:08 01:43:04 18° 183° (S) 01:47:01 437.500
MOZHAYETS 4 26 Feb 01:49:21 01:51:39 14° 66° (ENE) 01:53:56
PCSat 26 Feb 02:08:30 02:13:45 51° 249° (WSW) 02:18:57 145.827
Gurwin Techsat 1B 26 Feb 02:10:54 02:16:16 84° 102° (ESE) 02:21:35 435.225
AO-7 26 Feb 02:43:47 02:50:28 26° 96° (E) 02:57:05 .
AO-85 26 Feb 02:58:08 03:01:34 20° 112° (ESE) 03:04:50 145.980
Oscar 19 26 Feb 03:01:08 03:04:24 17° 295° (WNW) 03:07:38 437.125/150
ITUPSAT 1 26 Feb 03:04:12 03:08:24 30° 263° (W) 03:12:39 437.325
BEESAT 26 Feb 03:10:37 03:14:32 25° 264° (W) 03:18:30 436.000
RS-15 26 Feb 03:14:19 03:26:29 73° 246° (WSW) 03:38:04 29.354- 29.394
MOZHAYETS 4 26 Feb 03:23:47 03:28:18 52° 260° (W) 03:32:51
SRMSAT 26 Feb 03:28:54 03:31:31 13° 193° (SSW) 03:34:07 437.500
ITAMSAT 1 26 Feb 03:34:53 03:40:09 87° 285° (WNW) 03:45:22 435.822/435.867
KKS-1 26 Feb 03:48:55 03:53:18 72° 76° (ENE) 03:57:43 437.445
Gurwin Techsat 1B 26 Feb 03:54:11 03:55:26 11° 299° (WNW) 03:56:40 435.225
STARS 26 Feb 04:20:42 04:25:02 71° 75° (ENE) 04:29:23 437.465
CUBESAT XI-V 26 Feb 04:25:09 04:29:49 78° 258° (WSW) 04:34:29 437.345
M-CUBED/EXP-1 PRIME 26 Feb 04:32:18 04:35:35 67° 72° (ENE) 04:38:49 437.505
AO-7 26 Feb 04:35:27 04:43:33 60° 292° (WNW) 04:51:38 .
AO-85 26 Feb 04:37:35 04:41:47 34° 304° (WNW) 04:45:44 145.980
BEESAT 3 26 Feb 05:15:59 05:19:24 30° 113° (ESE) 05:22:53 437.485
XW-2F 26 Feb 05:19:37 05:20:35 11° 92° (E) 05:21:32 145.980 - 146.000
XW-2D 26 Feb 05:23:53 05:25:50 14° 93° (E) 05:27:48 145.860 - 145.880
XW-2B 26 Feb 05:28:40 05:30:57 15° 94° (E) 05:33:13 145.730 - 145.750
RS-15 26 Feb 05:31:49 05:36:38 13° 264° (W) 05:41:22 29.354- 29.394
XW-2C 26 Feb 05:36:51 05:39:42 20° 95° (E) 05:42:31 145.795 - 145.815
NUDT-PHONESAT 26 Feb 05:45:34 05:48:24 20° 95° (E) 05:51:12 437.300
SO-50 26 Feb 05:50:21 05:52:26 13° 46° (NE) 05:54:30 436.795
LilacSat-2 26 Feb 05:54:06 05:57:38 35° 98° (E) 06:01:07 437.200
BEESAT 2 26 Feb 05:56:03 05:59:36 34° 113° (ESE) 06:03:14 435.950
HO-68 26 Feb 06:17:15 06:19:58 12° 91° (E) 06:22:40 435.675
CUTE-I 26 Feb 06:28:31 06:33:54 74° 102° (ESE) 06:39:15 437.470
DOVE 4 26 Feb 06:28:42 06:33:31 79° 282° (WNW) 06:38:35 437.250
AO-7 26 Feb 06:32:51 06:34:35 11° 311° (NW) 06:36:19 .
ISS 26 Feb 06:36:43 06:39:38 30° 132° (SE) 06:42:35 437.550
CUTE 1.7 + AOD 2 26 Feb 06:42:06 06:43:52 12° 92° (E) 06:45:37 437.475
XW-2A 26 Feb 06:44:10 06:46:34 18° 95° (E) 06:48:57 145.665 - 145.685
KAITUO 1B 26 Feb 06:44:53 06:48:35 58° 284° (WNW) 06:52:14 145.475/437.950
STRAND 1 26 Feb 06:48:57 06:54:05 83° 76° (ENE) 06:59:16 437.568
XW-2F 26 Feb 06:51:20 06:54:54 39° 286° (WNW) 06:58:25 145.980 - 146.000
BEESAT 3 26 Feb 06:54:13 06:57:02 19° 309° (NW) 06:59:54 437.485
XW-2D 26 Feb 06:56:42 07:00:07 31° 287° (WNW) 07:03:29 145.860 - 145.880
Tancredo 1 26 Feb 06:59:45 07:02:56 62° 135° (SE) 07:06:10 437.200
XW-2B 26 Feb 07:01:52 07:05:10 28° 288° (WNW) 07:08:26 145.730 - 145.750
CUBEBUG 2 26 Feb 07:09:59 07:12:12 13° 91° (E) 07:14:25 437.445
XW-2C 26 Feb 07:10:49 07:13:48 22° 289° (WNW) 07:16:45 145.795 - 145.815
NUDT-PHONESAT 26 Feb 07:19:21 07:22:12 21° 289° (WNW) 07:25:02 437.300
AAUSAT CUBESAT 2 26 Feb 07:24:21 07:25:39 11° 92° (E) 07:26:57 437.432
SO-50 26 Feb 07:28:53 07:33:21 69° 243° (WSW) 07:37:47 436.795
LilacSat-2 26 Feb 07:29:44 07:31:33 13° 292° (WNW) 07:33:22 437.200
BEESAT 2 26 Feb 07:34:46 07:37:28 17° 309° (NW) 07:40:13 435.950
SEEDS 26 Feb 07:35:46 07:39:36 36° 98° (E) 07:43:25 437.485
UWE-3 26 Feb 07:44:22 07:47:42 19° 94° (E) 07:50:59 435.000/436.395/437.385
HO-68 26 Feb 08:01:16 08:08:27 89° 105° (ESE) 08:15:37 435.675
ZACube-1 26 Feb 08:03:22 08:06:25 18° 93° (E) 08:09:26 437.345
CUTE-I 26 Feb 08:10:59 08:13:15 13° 298° (WNW) 08:15:31 437.470
O/OREOS (USA 219) 26 Feb 08:11:09 08:15:28 39° 66° (ENE) 08:19:46 437.305
ISS 26 Feb 08:13:24 08:16:06 23° 327° (NNW) 08:18:49 437.550
CUTE 1.7 + AOD 2 26 Feb 08:15:53 08:19:53 43° 286° (WNW) 08:23:51 437.475
XW-2A 26 Feb 08:16:40 08:19:14 20° 289° (WNW) 08:21:47 145.665 - 145.685
PRISM 26 Feb 08:23:45 08:27:20 30° 72° (ENE) 08:30:56 437.425
Tancredo 1 26 Feb 08:37:31 08:39:29 15° 331° (NNW) 08:41:27 437.200
CUBEBUG 2 26 Feb 08:44:27 08:49:05 52° 286° (WNW) 08:53:37 437.445
DELFI C3 26 Feb 08:48:09 08:49:15 11° 92° (E) 08:50:21 145.870
AO-73 26 Feb 08:50:06 08:54:34 57° 100° (E) 08:58:54 145.935
UNISAT 6 26 Feb 08:52:37 08:56:24 27° 70° (ENE) 09:00:15 437.425
TIGRISAT 26 Feb 08:52:44 08:56:23 25° 69° (ENE) 09:00:08 435.000
Oscar 11 26 Feb 08:55:32 08:59:47 55° 100° (E) 09:04:00 .
AAUSAT CUBESAT 2 26 Feb 08:57:23 09:01:18 44° 286° (WNW) 09:05:12 437.432
SEEDS 26 Feb 09:12:32 09:14:58 15° 292° (WNW) 09:17:22 437.485
UWE-3 26 Feb 09:20:00 09:24:11 34° 288° (WNW) 09:28:19 435.000/436.395/437.385
FO-29 26 Feb 09:37:33 09:44:16 48° 69° (ENE) 09:51:36 435.910
ZACube-1 26 Feb 09:38:38 09:42:46 35° 288° (WNW) 09:46:49 437.345
YUBILEINY 26 Feb 09:46:51 09:55:10 48° 89° (E) 10:03:27 435.215
HO-68 26 Feb 09:51:19 09:55:12 16° 302° (WNW) 09:59:04 435.675
O/OREOS (USA 219) 26 Feb 09:51:40 09:54:29 16° 260° (W) 09:57:18 437.305
POLYITAN 1 26 Feb 09:59:29 10:00:40 11° 65° (ENE) 10:01:50 437.675
PRISM 26 Feb 10:00:02 10:02:39 16° 265° (W) 10:05:16 437.425
QB50P2 26 Feb 10:01:43 10:03:38 13° 66° (ENE) 10:05:33 145.880/145.840
DELFI C3 26 Feb 10:20:31 10:24:13 41° 286° (WNW) 10:27:55 145.870
AO-73 26 Feb 10:28:33 10:30:13 12° 295° (WNW) 10:31:53 145.935
TIGRISAT 26 Feb 10:29:13 10:32:57 26° 265° (W) 10:36:45 435.000
UNISAT 6 26 Feb 10:29:25 10:33:01 24° 265° (W) 10:36:43 437.425
Oscar 11 26 Feb 10:34:09 10:35:23 11° 295° (WNW) 10:36:36 .
LO-87 26 Feb 10:43:23 10:46:41 33° 98° (E) 10:49:59 145.935 - 145.965
AIST 2D 26 Feb 10:45:44 10:49:14 67° 78° (ENE) 10:52:48 435.315
DUCHIFAT 1 26 Feb 11:01:47 11:05:51 50° 74° (ENE) 11:09:56 145.980
ESTCUBE 1 26 Feb 11:04:33 11:08:31 30° 97° (E) 11:12:26 437.505/2401.250
EO-79 26 Feb 11:13:47 11:18:00 88° 82° (E) 11:22:16 145.935-145.965
FO-29 26 Feb 11:23:25 11:29:25 30° 267° (W) 11:35:56 435.910
VELOX 1 26 Feb 11:25:54 11:28:35 16° 94° (E) 11:31:16 145.980
SPROUT 26 Feb 11:26:01 11:27:47 12° 92° (E) 11:29:32 437.525
NANOSAT C BR1 26 Feb 11:30:06 11:34:15 63° 258° (WSW) 11:38:28 145.865
POLYITAN 1 26 Feb 11:31:47 11:35:55 55° 260° (W) 11:40:07 437.675
QB50P2 26 Feb 11:34:55 11:38:58 46° 261° (W) 11:43:04 145.880/145.840
YUBILEINY 26 Feb 11:44:25 11:52:05 33° 286° (WNW) 11:59:48 435.215
Gurwin Techsat 1B 26 Feb 11:53:37 11:54:48 11° 61° (ENE) 11:55:59 435.225
BUGSAT 1 26 Feb 11:54:05 11:58:06 69° 76° (ENE) 12:02:11 437.445
LO-87 26 Feb 12:18:24 12:19:48 12° 292° (WNW) 12:21:12 145.935 - 145.965
Oscar 19 26 Feb 12:34:03 12:39:02 52° 73° (ENE) 12:44:01 437.125/150
50 SAT 26 Feb 12:39:56 12:43:25 86° 279° (W) 12:46:52 437.505
DUCHIFAT 1 26 Feb 12:40:50 12:41:46 11° 268° (W) 12:42:41 145.980
ESTCUBE 1 26 Feb 12:41:46 12:45:05 21° 291° (WNW) 12:48:23 437.505/2401.250
DX 1 26 Feb 12:48:17 12:52:36 61° 101° (E) 12:56:54 434.975-435.025
UKube-1 26 Feb 12:57:57 13:02:12 54° 101° (E) 13:06:25 .
SPROUT 26 Feb 12:59:46 13:03:54 46° 286° (WNW) 13:08:00 437.525
VELOX 1 26 Feb 13:01:03 13:05:08 38° 288° (WNW) 13:09:13 145.980
ISS 26 Feb 13:07:48 13:09:27 13° 27° (NNE) 13:11:05 437.550
AO-85 26 Feb 13:11:22 13:15:17 74° 60° (ENE) 13:19:17 145.980
ITAMSAT 1 26 Feb 13:14:27 13:15:57 11° 62° (ENE) 13:17:27 435.822/435.867
Gurwin Techsat 1B 26 Feb 13:28:38 13:33:58 85° 258° (WSW) 13:39:18 435.225
Tancredo 1 26 Feb 13:29:53 13:32:16 19° 32° (NNE) 13:34:37 437.200
AO-7 26 Feb 13:39:32 13:46:23 29° 60° (ENE) 13:53:13 .
Oscar 19 26 Feb 14:15:37 14:18:36 15° 267° (W) 14:21:35 437.125/150
DX 1 26 Feb 14:27:21 14:28:13 11° 296° (WNW) 14:29:07 434.975-435.025
UKube-1 26 Feb 14:36:17 14:37:42 11° 295° (WNW) 14:39:08 .
ISS 26 Feb 14:43:00 14:46:17 82° 224° (SW) 14:49:32 437.550
ITAMSAT 1 26 Feb 14:49:28 14:54:40 80° 257° (WSW) 14:59:55 435.822/435.867
PCSat 26 Feb 15:03:56 15:08:43 33° 109° (ESE) 15:13:32 145.827
Tancredo 1 26 Feb 15:05:36 15:08:39 39° 227° (SW) 15:11:38 437.200
ITUPSAT 1 26 Feb 15:07:09 15:11:58 88° 102° (ESE) 15:16:45 437.325
BEESAT 3 26 Feb 15:12:34 15:16:36 89° 75° (ENE) 15:20:35 437.485
BEESAT 26 Feb 15:12:51 15:17:39 78° 285° (WNW) 15:22:24 436.000
MOZHAYETS 4 26 Feb 15:22:00 15:26:25 45° 99° (E) 15:30:47
RS-15 26 Feb 15:23:31 15:32:11 24° 100° (E) 15:41:02 29.354- 29.394
AO-7 26 Feb 15:30:25 15:38:36 58° 257° (WSW) 15:46:50 .
KKS-1 26 Feb 15:44:04 15:47:05 18° 95° (E) 15:50:05 437.445
BEESAT 2 26 Feb 15:53:49 15:57:53 80° 242° (WSW) 16:01:53 435.950
NO-84 26 Feb 15:55:52 15:58:50 53° 130° (SE) 16:02:05 435.350 FM
STARS 26 Feb 16:14:23 16:17:12 16° 94° (E) 16:20:00 437.465
CUBESAT XI-V 26 Feb 16:25:13 16:29:20 32° 97° (E) 16:33:26 437.345
LilacSat-2 26 Feb 16:34:38 16:36:10 12° 67° (ENE) 16:37:41 437.200
PCSat 26 Feb 16:47:22 16:52:04 29° 305° (NW) 16:56:47 145.827
MOZHAYETS 4 26 Feb 17:00:31 17:03:08 15° 294° (WNW) 17:05:44
KKS-1 26 Feb 17:19:37 17:23:42 35° 288° (WNW) 17:27:45 437.445
KAITUO 1B 26 Feb 17:21:32 17:25:02 36° 74° (ENE) 17:28:33 145.475/437.950
XW-2F 26 Feb 17:28:27 17:32:11 55° 76° (ENE) 17:35:58 145.980 - 146.000
RS-15 26 Feb 17:31:18 17:43:10 81° 300° (WNW) 17:55:36 29.354- 29.394
DOVE 4 26 Feb 17:31:24 17:35:31 69° 76° (ENE) 17:39:40 437.250
XW-2D 26 Feb 17:33:55 17:37:44 71° 77° (ENE) 17:41:35 145.860 - 145.880
NO-84 26 Feb 17:35:02 17:36:49 14° 328° (NNW) 17:38:40 435.350 FM
XW-2B 26 Feb 17:38:59 17:42:50 80° 76° (ENE) 17:46:41 145.730 - 145.750
M-CUBED/EXP-1 PRIME 26 Feb 17:46:49 17:50:44 89° 121° (ESE) 17:54:57 437.505
CUTE-I 26 Feb 17:46:59 17:52:19 87° 76° (ENE) 17:57:42 437.470
XW-2C 26 Feb 17:47:42 17:51:32 76° 258° (WSW) 17:55:24 145.795 - 145.815
STARS 26 Feb 17:49:33 17:53:37 37° 288° (WNW) 17:57:42 437.465
NUDT-PHONESAT 26 Feb 17:54:22 17:58:06 78° 258° (WSW) 18:01:54 437.300
CUBESAT XI-V 26 Feb 18:03:05 18:06:28 21° 291° (WNW) 18:09:50 437.345
LilacSat-2 26 Feb 18:06:23 18:10:02 40° 261° (W) 18:13:43 437.200
SEEDS 26 Feb 18:25:01 18:27:48 17° 69° (ENE) 18:30:36 437.485
HO-68 26 Feb 18:26:05 18:32:52 48° 68° (ENE) 18:39:40 435.675
UWE-3 26 Feb 18:40:09 18:41:19 11° 64° (ENE) 18:42:30 435.000/436.395/437.385
XW-2A 26 Feb 18:43:51 18:47:12 74° 78° (ENE) 18:50:37 145.665 - 145.685
KAITUO 1B 26 Feb 18:57:39 18:59:10 12° 267° (W) 19:00:41 145.475/437.950
STRAND 1 26 Feb 19:03:03 19:07:48 37° 98° (E) 19:12:30 437.568
CUTE 1.7 + AOD 2 26 Feb 19:04:31 19:08:47 83° 76° (ENE) 19:13:05 437.475
CUBEBUG 2 26 Feb 19:38:37 19:43:01 86° 78° (ENE) 19:47:36 437.445
AO-73 26 Feb 19:42:14 19:46:05 29° 71° (ENE) 19:50:00 145.935
AAUSAT CUBESAT 2 26 Feb 19:43:34 19:47:42 73° 78° (ENE) 19:51:51 437.432
Oscar 11 26 Feb 19:47:11 19:50:54 28° 71° (ENE) 19:54:38 .
RS-15 26 Feb 19:48:24 19:57:55 26° 325° (NW) 20:07:41 29.354- 29.394
SEEDS 26 Feb 19:59:24 20:03:13 32° 263° (W) 20:07:02 437.485
YUBILEINY 26 Feb 20:02:24 20:08:13 19° 68° (ENE) 20:13:58 435.215
UWE-3 26 Feb 20:12:44 20:17:08 63° 260° (W) 20:21:41 435.000/436.395/437.385
HO-68 26 Feb 20:14:44 20:20:42 28° 264° (W) 20:26:43 435.675
ZACube-1 26 Feb 20:30:08 20:34:33 69° 259° (W) 20:39:05 437.345
STRAND 1 26 Feb 20:42:45 20:46:42 23° 293° (WNW) 20:50:39 437.568
JUGNU 26 Feb 20:47:29 20:50:49 16° 172° (S) 20:54:11 437.505
DELFI C3 26 Feb 21:02:10 21:06:05 64° 76° (ENE) 21:10:00 145.870
AO-73 26 Feb 21:18:53 21:22:17 21° 266° (W) 21:25:44 145.935
Oscar 11 26 Feb 21:23:43 21:26:59 21° 265° (W) 21:30:17 .
SO-50 26 Feb 21:39:26 21:44:08 83° 119° (ESE) 21:48:48 436.795
PRISM 26 Feb 21:42:42 21:46:47 82° 102° (ESE) 21:50:52 437.425
SRMSAT 26 Feb 21:53:02 21:53:14 10° 164° (SSE) 21:53:25 437.500
